KG4IFE-13 Weather Reports


time (UTC)temp
C
wind
direction
speed
KPH
gust
KPH
rain 1hr
cm
rain 24hr
cm
rain mn
cm
humidity
%
barometer
mb
20260504082002 10 171 1.6 3.2 0.00 0.00 0.00 61 1016.4
20260504081502 10 171 1.6 3.2 0.00 0.00 0.00 61 1016.4
20260504081001 10 171 1.6 3.2 0.00 0.00 0.00 61 1016.4
20260504080459 10 171 1.6 3.2 0.00 0.00 0.00 61 1016.4
20260504050423 10 26 1.6 3.2 0.00 0.00 0.00 60 1016.7
20260504050002 9 0.0 1.6 0.00 0.00 0.00 60 1016.7
20260504045421 9 0.0 1.6 0.00 0.00 0.00 60 1016.7
20260504044920 9 0.0 1.6 0.00 0.00 0.00 60 1016.4
20260504044419 9 0.0 1.6 0.00 0.00 0.00 60 1016.4
20260504043918 8 90 1.6 3.2 0.00 0.00 0.00 63 1016.3
20260504043418 8 90 1.6 3.2 0.00 0.00 0.00 63 1016.3
20260504042915 8 90 1.6 1.6 0.00 0.00 0.00 66 1016.4
20260504042415 8 90 1.6 1.6 0.00 0.00 0.00 66 1016.4
20260504041914 7 315 1.6 1.6 0.00 0.00 0.00 66 1016.5
20260504041414 7 315 1.6 1.6 0.00 0.00 0.00 66 1016.5
20260504040913 7 165 1.6 1.6 0.00 0.00 0.00 66 1016.6
20260504040411 7 165 1.6 1.6 0.00 0.00 0.00 66 1016.6
20260504035951 7 173 1.6 3.2 0.00 0.00 0.00 64 1016.5
20260504035449 7 173 1.6 3.2 0.00 0.00 0.00 64 1016.5
20260504034909 7 0.0 1.6 0.00 0.00 0.00 63 1016.6
20260504034407 7 0.0 1.6 0.00 0.00 0.00 63 1016.6
20260504033928 7 171 1.6 1.6 0.00 0.00 0.00 63 1016.6
20260504033405 7 171 1.6 1.6 0.00 0.00 0.00 63 1016.6
20260504032925 8 213 1.6 3.2 0.00 0.00 0.00 61 1016.6
20260504032404 8 213 1.6 3.2 0.00 0.00 0.00 61 1016.6
20260504031902 8 0.0 1.6 0.00 0.00 0.00 59 1016.6
20260504031403 8 0.0 1.6 0.00 0.00 0.00 59 1016.6
20260504030900 8 0.0 1.6 0.00 0.00 0.00 58 1016.6
20260504030358 8 0.0 1.6 0.00 0.00 0.00 58 1016.6
20260504025918 8 0.0 1.6 0.00 0.00 0.00 58 1016.6
20260504025357 8 192 1.6 1.6 0.00 0.00 0.00 58 1016.7
20260504024856 8 192 1.6 1.6 0.00 0.00 0.00 58 1016.7
20260504024355 8 194 1.6 1.6 0.00 0.00 0.00 56 1016.8
20260504023915 8 194 1.6 1.6 0.00 0.00 0.00 56 1016.8
20260504023353 9 204 1.6 3.2 0.00 0.00 0.00 57 1016.6
20260504022851 9 204 1.6 3.2 0.00 0.00 0.00 57 1016.6
20260504022351 9 180 1.6 3.2 0.00 0.00 0.00 56 1016.5
20260504021850 9 180 1.6 3.2 0.00 0.00 0.00 56 1016.5
20260504021351 9 187 1.6 3.2 0.00 0.00 0.00 56 1016.4
20260504020850 9 187 1.6 3.2 0.00 0.00 0.00 56 1016.4
20260504020347 9 176 1.6 3.2 0.00 0.00 0.00 56 1016.3
20260504015846 9 176 1.6 3.2 0.00 0.00 0.00 56 1016.3
20260504015345 10 210 1.6 3.2 0.00 0.00 0.00 57 1016.3
20260504014845 10 210 1.6 3.2 0.00 0.00 0.00 57 1016.3
20260504014342 10 190 1.6 1.6 0.00 0.00 0.00 55 1016.0
20260504013842 10 190 1.6 1.6 0.00 0.00 0.00 55 1016.0
20260504013341 10 209 1.6 1.6 0.00 0.00 0.00 54 1016.0
20260504012840 10 209 1.6 1.6 0.00 0.00 0.00 54 1016.0
20260504012340 10 206 1.6 1.6 0.00 0.00 0.00 55 1015.9
20260504011837 10 206 1.6 1.6 0.00 0.00 0.00 55 1015.9
20260504011337 11 0.0 1.6 0.00 0.00 0.00 54 1015.9
20260504010836 11 0.0 1.6 0.00 0.00 0.00 54 1015.9
20260504010335 11 194 1.6 3.2 0.00 0.00 0.00 52 1015.8
20260504005854 11 194 1.6 3.2 0.00 0.00 0.00 52 1015.8
20260504005333 12 194 1.6 1.6 0.00 0.00 0.00 50 1015.6
20260504004833 12 194 1.6 1.6 0.00 0.00 0.00 50 1015.6
20260504004331 12 0.0 1.6 0.00 0.00 0.00 49 1015.5
20260504003832 12 0.0 1.6 0.00 0.00 0.00 49 1015.5
20260504003329 13 0.0 1.6 0.00 0.00 0.00 45 1015.4
20260504002849 13 0.0 1.6 0.00 0.00 0.00 45 1015.4
20260504002327 14 206 1.6 1.6 0.00 0.00 0.00 43 1015.5
20260504001828 14 206 1.6 1.6 0.00 0.00 0.00 43 1015.5
20260504001325 15 0.0 1.6 0.00 0.00 0.00 40 1015.6
20260504000824 15 0.0 1.6 0.00 0.00 0.00 40 1015.6
20260504000343 15 0.0 1.6 0.00 0.00 0.00 38 1015.5
20260503235824 15 0.0 1.6 0.00 0.00 0.00 38 1015.5
20260503235321 15 0.0 1.6 0.00 0.00 0.00 38 1015.5
20260503234822 15 0.0 1.6 0.00 0.00 0.00 38 1015.5
20260503234319 16 26 1.6 1.6 0.00 0.00 0.00 38 1015.4
20260503233818 16 26 1.6 1.6 0.00 0.00 0.00 38 1015.4
20260503233318 16 0.0 1.6 0.00 0.00 0.00 37 1015.4
20260503232816 16 0.0 1.6 0.00 0.00 0.00 37 1015.4
20260503232335 16 348 1.6 1.6 0.00 0.00 0.00 36 1015.2
20260503231814 16 348 1.6 1.6 0.00 0.00 0.00 36 1015.2
20260503231312 17 45 1.6 4.8 0.00 0.00 0.00 36 1015.1
20260503230813 17 45 1.6 4.8 0.00 0.00 0.00 36 1015.1
20260503230333 17 323 1.6 3.2 0.00 0.00 0.00 35 1015.3
20260503225810 17 323 1.6 3.2 0.00 0.00 0.00 35 1015.3
20260503225311 17 270 1.6 3.2 0.00 0.00 0.00 36 1015.3
20260503224809 17 270 1.6 3.2 0.00 0.00 0.00 36 1015.3
20260503224309 17 0 1.6 3.2 0.00 0.00 0.00 35 1015.4
20260503223805 17 0 1.6 3.2 0.00 0.00 0.00 35 1015.4
20260503223305 17 270 1.6 3.2 0.00 0.00 0.00 35 1015.4
20260503222805 17 270 1.6 3.2 0.00 0.00 0.00 35 1015.4
20260503222305 17 239 1.6 3.2 0.00 0.00 0.00 35 1015.5
20260503221802 17 239 1.6 3.2 0.00 0.00 0.00 35 1015.5
20260503221303 17 270 1.6 4.8 0.00 0.00 0.00 35 1015.5
20260503220800 17 270 1.6 4.8 0.00 0.00 0.00 35 1015.5
20260503220259 17 333 1.6 1.6 0.00 0.00 0.00 35 1015.5
20260503215757 17 333 1.6 1.6 0.00 0.00 0.00 35 1015.5
20260503215257 17 270 1.6 4.8 0.00 0.00 0.00 34 1015.7
20260503214757 17 270 1.6 4.8 0.00 0.00 0.00 34 1015.7
20260503214255 17 255 1.6 6.4 0.00 0.00 0.00 35 1015.8
20260503213754 17 255 1.6 6.4 0.00 0.00 0.00 35 1015.8
20260503213253 18 303 1.6 6.4 0.00 0.00 0.00 34 1015.8
20260503212752 18 303 1.6 6.4 0.00 0.00 0.00 34 1015.8
20260503212251 18 270 1.6 4.8 0.00 0.00 0.00 34 1015.8
20260503211749 18 270 1.6 4.8 0.00 0.00 0.00 34 1015.8
20260503211250 18 254 1.6 6.4 0.00 0.00 0.00 33 1016.0
20260503210748 18 254 1.6 6.4 0.00 0.00 0.00 33 1016.0
20260503210247 19 327 1.6 6.4 0.00 0.00 0.00 33 1015.9
20260503205807 19 327 1.6 6.4 0.00 0.00 0.00 33 1015.9
20260503205305 20 315 1.6 6.4 0.00 0.00 0.00 32 1016.2
20260503204746 20 315 1.6 6.4 0.00 0.00 0.00 32 1016.2
20260503204304 19 321 1.6 4.8 0.00 0.00 0.00 33 1016.2
20260503203742 19 321 1.6 4.8 0.00 0.00 0.00 33 1016.2
20260503203241 20 270 1.6 6.4 0.00 0.00 0.00 33 1016.4
20260503202740 20 270 1.6 6.4 0.00 0.00 0.00 33 1016.4
20260503202239 19 323 1.6 4.8 0.00 0.00 0.00 33 1016.4
20260503201738 19 323 1.6 4.8 0.00 0.00 0.00 33 1016.4
20260503201238 19 270 1.6 6.4 0.00 0.00 0.00 34 1016.7
20260503200817 19 270 1.6 6.4 0.00 0.00 0.00 34 1016.7
20260503200234 19 270 1.6 4.8 0.00 0.00 0.00 35 1016.8
20260503195734 19 270 1.6 4.8 0.00 0.00 0.00 35 1016.8
20260503195234 19 311 1.6 9.7 0.00 0.00 0.00 34 1017.0
20260503194732 19 311 1.6 9.7 0.00 0.00 0.00 34 1017.0
20260503194230 19 208 1.6 6.4 0.00 0.00 0.00 36 1017.1
20260503193731 19 208 1.6 6.4 0.00 0.00 0.00 36 1017.1
20260503193229 19 248 1.6 6.4 0.00 0.00 0.00 36 1017.3
20260503192730 19 248 1.6 6.4 0.00 0.00 0.00 36 1017.3
20260503192227 18 315 1.6 6.4 0.00 0.00 0.00 35 1017.3
20260503191726 18 315 1.6 6.4 0.00 0.00 0.00 35 1017.3
20260503191226 18 255 3.2 9.7 0.00 0.00 0.00 37 1017.5
20260503190725 18 255 3.2 9.7 0.00 0.00 0.00 37 1017.5
20260503190304 18 270 1.6 8.0 0.00 0.00 0.00 36 1017.6
20260503185722 18 270 1.6 8.0 0.00 0.00 0.00 36 1017.6
20260503185221 18 315 1.6 4.8 0.00 0.00 0.00 38 1017.9
20260503184721 18 315 1.6 4.8 0.00 0.00 0.00 38 1017.9
20260503184219 18 315 1.6 3.2 0.00 0.00 0.00 37 1018.0
20260503183720 18 315 1.6 3.2 0.00 0.00 0.00 37 1018.0
20260503183217 18 270 1.6 4.8 0.00 0.00 0.00 39 1018.2
20260503182716 18 270 1.6 4.8 0.00 0.00 0.00 39 1018.2
20260503182216 17 315 1.6 6.4 0.00 0.00 0.00 38 1018.3
20260503181733 17 315 1.6 6.4 0.00 0.00 0.00 38 1018.3
20260503181214 17 231 1.6 6.4 0.00 0.00 0.00 39 1018.3
20260503180713 17 231 1.6 6.4 0.00 0.00 0.00 39 1018.3
20260503180231 17 171 1.6 6.4 0.00 0.00 0.00 38 1018.4
20260503175730 17 171 1.6 6.4 0.00 0.00 0.00 38 1018.4
20260503175209 17 187 1.6 8.0 0.00 0.00 0.00 40 1018.5
20260503174708 17 187 1.6 8.0 0.00 0.00 0.00 40 1018.5
20260503174207 17 228 1.6 9.7 0.00 0.00 0.00 41 1018.8
20260503173708 17 228 1.6 9.7 0.00 0.00 0.00 41 1018.8
20260503173206 16 315 1.6 3.2 0.00 0.00 0.00 42 1018.8
20260503172746 16 315 1.6 3.2 0.00 0.00 0.00 42 1018.8
20260503172204 16 215 1.6 9.7 0.00 0.00 0.00 40 1019.0
20260503171703 16 215 1.6 9.7 0.00 0.00 0.00 40 1019.0
20260503171201 15 302 1.6 6.4 0.00 0.00 0.00 42 1019.2
20260503170702 15 302 1.6 6.4 0.00 0.00 0.00 42 1019.2
20260503170159 15 315 1.6 6.4 0.00 0.00 0.00 40 1019.4
20260503160207 13 331 1.6 8.0 0.00 0.00 0.00 44 1019.8
20260503150637 10 270 1.6 6.4 0.00 0.00 0.00 51 1020.0
20260503150136 10 332 1.6 4.8 0.00 0.00 0.00 51 1020.3
20260503140123 9 270 1.6 4.8 0.00 0.00 0.00 52 1020.1
20260503130210 8 325 1.6 3.2 0.00 0.00 0.00 56 1019.8